Regional Weather Roundup
Issued by NWS

Home | Current Version | Previous Version | Text Only | Print | Product List | Glossary Off
Versions: 1 2 3 4 5 6 7 8 9 10 11 12 13 14 15 16 17 18 19 20 21 22 23 24 25 26 27 28 29 30 31 32 33 34 35 36 37 38 39 40 41 42 43 44 45 46 47 48 49 50

000
ASUS43 KFSD 220610
RWRSD

WEATHER ROUNDUP FOR SOUTH DAKOTA
NATIONAL WEATHER SERVICE SIOUX FALLS SD
100 AM CDT WED MAR 22 2017

NOTE: "FAIR" INDICATES FEW OR NO CLOUDS BELOW 12,000 FEET WITH NO
SIGNIFICANT WEATHER AND/OR OBSTRUCTIONS TO VISIBILITY.


SDZ001>005-009-010-012>017-220700-
NORTHWEST AND NORTH CENTRAL SOUTH DAKOTA

CITY           SKY/WX    TMP DP  RH WIND       PRES   REMARKS
BUFFALO          N/A     28  22  78 SE31G38   30.06F WCI  12
FAITH            N/A     27  22  81 SE18G28   30.25F WCI  14
MOBRIDGE       CLOUDY    28  16  60 SE17      30.37F WCI  16
$$

SDZ012>016-024>037-041>051-057-063-072>074-220700-
SOUTHWEST AND SOUTH CENTRAL SOUTH DAKOTA

CITY           SKY/WX    TMP DP  RH WIND       PRES   REMARKS
RAPID CTY ARPT CLOUDY    29  27  92 SE16      30.18F WCI  17
PIERRE         CLOUDY    30  18  60 E15       30.36F WCI  19
CUSTER         FRZ RAIN  30  27  88 VRB6      30.13F FOG     WCI  24
ELLSWORTH AFB  CLOUDY    29  29 100 S6        30.16F FOG     WCI  23
PHILIP         CLOUDY    30  25  81 SE14G22   30.30F WCI  19
PINE RIDGE     LGT RAIN  35  32  88 SE12      30.20F WCI  27
SPEARFISH      FAIR      30  28  93 E12       30.03F WCI  21
WINNER         CLOUDY    31  25  78 SE14      30.38F WCI  21
$$

SDZ004>011-016>023-039-040-220700-
NORTHEAST SOUTH DAKOTA

CITY           SKY/WX    TMP DP  RH WIND       PRES   REMARKS
ABERDEEN       PTCLDY    20  13  74 E12       30.49F WCI   8
WATERTOWN      CLEAR     18  14  84 NE5       30.46F WCI  11
BROOKINGS      CLEAR     22  16  78 NE3       30.47S
SISSETON         N/A     17  14  88 W5        30.51F WCI  10
$$

SDZ017-020-022-023-036>040-048>070-220700-
SOUTHEAST SOUTH DAKOTA

CITY           SKY/WX    TMP DP  RH WIND       PRES   REMARKS
SIOUX FALLS    PTCLDY    25  20  81 NE8       30.47F WCI  16
HURON          CLOUDY    26  18  71 E10       30.47F WCI  16
CHAMBERLAIN    CLOUDY    33  24  68 E10       30.41F WCI  25
MITCHELL       MOCLDY    29  20  69 E12       30.47F WCI  19
YANKTON        CLOUDY    30  19  64 NE14      30.45F WCI  20
$$

ABBREVIATIONS USED IN REMARKS
   TC - TEMPERATURE IN CELSIUS
  WCI - WIND CHILL INDEX
   HX - HEAT INDEX
  VSB - VISIBILITY





USA.gov is the U.S. government's official web portal to all federal, state and local government web resources and services.